Current weather by "City, St" or "zip code"  
 

Current Conditions: Hereford Municipal Airport, TX

Fair and Breezy


53.0 F

Last Updated on Oct 24 2020, 11:55 am CDT
Humidity: 46%
Wind Speed: SW 24.2 G 32.2 mph
Barometer 30.03 in
Dewpoint: 32.2 F
Visibility: 7.00 mi
Precip: --
Heat Index: NA
Wind Chill: 47 F
Current conditions at:

Hereford Municipal Airport, TX (KHRX)

Lat: 34.8578 Lon: 102.3264

Local Radar Image active severe weather and emergency alerts image image weather storm and storm spotter reports image weather observation monitoring service image
Local
Radar
Active
Alerts
Storm Reports Obs
Monitoring

Sign-up For Email & Text Message Weather Alert Notification Services



Advertise Here

Observation History for Hereford Municipal Airport, TX


Time Wind
(mph)
Vis
(mi)
Weather Precip (in) Temperature (F) Relative
Humidity
Wind
Chill
(F)
Heat
Index
(F)
Pressure
Air Dwpt altimeter
(in)
sea level
(mb)
Rmks
11:55 am CDT SW 24.2 G 32.2 7.00 Fair and Breezy -- 53.0 32.2 46% 47 NA 30.03 M
10:55 am CDT SW 18.4 G 27.6 10.00 Fair -- 46.0 31.5 57% 39 NA 30.09 M
9:55 am CDT SW 15.0 G 20.7 7.00 Fair -- 43.0 30.2 61% 36 NA 30.10 M
8:55 am CDT SW 10.4 7.00 Fair -- 37.0 28.4 71% 30 NA 30.12 M
7:55 am CDT SW 4.6 7.00 Fair -- 33.0 26.1 77% 29 NA 30.15 M
6:55 am CDT SW 4.6 7.00 Fair -- 33.0 25.7 76% 29 NA 30.17 M
5:55 am CDT SW 4.6 7.00 Fair -- 32.0 25.0 75% 27 NA 30.18 M
4:55 am CDT N 0.0 10.00 Fair -- 32.0 24.8 75% NA NA 30.20 M
3:55 am CDT SW 3.5 7.00 Fair -- 31.0 24.3 76% NA NA 30.22 M
2:55 am CDT N 0.0 7.00 Fair -- 31.0 22.3 71% NA NA 30.24 M
2:35 am CDT N 0.0 10.00 Fair -- 32.0 24.3 74% NA NA 30.26 M
1:55 am CDT N 0.0 10.00 Fair -- 31.0 23.9 74% NA NA 30.27 M
12:55 am CDT N 0.0 7.00 Fair -- 30.0 21.6 71% NA NA 30.31 M
12:35 am CDT N 0.0 10.00 Fair -- 31.0 22.5 71% NA NA 30.31 M
11:55 pm CDT N 0.0 10.00 Fair -- 32.0 23.7 72% NA NA 30.33 M
11:35 pm CDT N 0.0 10.00 Fair -- 32.0 22.8 70% NA NA 30.33 M
10:55 pm CDT N 0.0 10.00 Fair -- 34.0 24.4 69% NA NA 30.33 M
10:35 pm CDT N 0.0 10.00 Fair -- 34.0 24.3 68% NA NA 30.33 M
9:55 pm CDT N 0.0 7.00 Fair -- 34.0 24.4 69% NA NA 30.32 M
9:35 pm CDT E 4.6 10.00 Fair -- 36.0 25.3 65% 32 NA 30.32 M
8:55 pm CDT E 4.6 7.00 Fair -- 37.0 25.5 64% 33 NA 30.32 M
7:55 pm CDT E 5.8 7.00 Fair -- 40.0 26.4 59% 36 NA 30.31 M
6:55 pm CDT E 8.1 7.00 Fair -- 44.0 27.3 52% 39 NA 30.29 M
6:35 pm CDT NE 11.5 7.00 Fair -- 45.0 27.3 50% 39 NA 30.29 M

Regional Weather Observation


Dumas, Moore County Airport, TX (KDUX)

Fair and Breezy
49.0 F

Amarillo, Amarillo International Airport, TX (KAMA)

Fair and Windy
51.0 F

Clovis Municipal Airport, NM (KCVN)

Fair and Breezy
52.0 F

Tucumcari Municipal Airport, NM (KTCC)

Fair and Breezy
58.0 F

Cannon Air Force Base / Clovis, NM (KCVS)

A Few Clouds
53.0 F

Borger, Hutchinson County Airport, TX (KBGD)

Fair
56.0 F